Bookmark and Share
Track history (hours):
 

Containerships 6

Last reported at 2014-Apr-23 14:33 UTC. Time now 2014-Apr-23 15:14 UTC.
Position N 54°39' W 001°08'.

Length 155 m; beam 21.8 m; draft 8.9 m.

Type: Ship (hazmat cat A). MMSI: 211315096.

NotesDate/timePositionNaut miles runAvg speedWind from/ knotsBaromVisibWave heightAir tempDewpointWater temp
2014-Apr-23 14:33N 54°39' W 001°08'3 2.9
2014-Apr-23 13:33N 54°36' W 001°09'0 0.0
2014-Apr-23 12:33N 54°36' W 001°09'0 0.0
2014-Apr-23 11:33N 54°36' W 001°09'0 0.0
2014-Apr-23 10:33N 54°36' W 001°09'0 0.0
2014-Apr-23 09:33N 54°36' W 001°09'0 0.0
2014-Apr-23 08:33N 54°36' W 001°09'0 0.0
2014-Apr-23 07:33N 54°36' W 001°09'0 0.0
2014-Apr-23 06:32N 54°36' W 001°09'0 0.3
2014-Apr-23 05:33N 54°36' W 001°09'9 9.1
2014-Apr-23 04:33N 54°43' W 000°60'1616.3
2014-Apr-23 03:33N 54°50' W 000°34'1616.4
2014-Apr-23 02:33N 54°57' W 000°09'38214.7
2014-Apr-22 00:34N 57°45' E 010°10'1918.8
2014-Apr-21 23:33N 57°48' E 010°44'1818.4
2014-Apr-21 22:33N 57°39' E 011°13'1918.9
2014-Apr-21 21:33N 57°22' E 011°31'1817.7
2014-Apr-21 20:33N 57°05' E 011°42'1717.5
2014-Apr-21 19:33N 56°49' E 011°54'1817.7
2014-Apr-21 18:32N 56°33' E 012°10'1818.1
2014-Apr-21 17:34N 56°17' E 012°23'1918.6
2014-Apr-21 16:33N 56°01' E 012°41'1616.0
2014-Apr-21 15:34N 55°45' E 012°42'1313.5
2014-Apr-21 14:33N 55°32' E 012°43'1414.3
2014-Apr-21 13:33N 55°18' E 012°43'1817.9
2014-Apr-21 12:33N 55°15' E 013°14'1918.4
2014-Apr-21 11:32N 55°14' E 013°47'1818.5
2014-Apr-21 10:33N 55°15' E 014°19'1817.5
2014-Apr-21 09:33N 55°26' E 014°42'1818.3
2014-Apr-21 08:33N 55°27' E 015°14'34610.2
2014-Apr-19 22:32N 59°32' E 022°48'1717.7
2014-Apr-19 21:33N 59°38' E 023°20'1817.6
2014-Apr-19 20:33N 59°42' E 023°54'1111.3
2014-Apr-19 19:33N 59°46' E 024°15'9 8.8
2014-Apr-19 18:28N 59°49' E 024°33'8 8.6
2014-Apr-19 17:33N 59°52' E 024°47'12 8.3
2014-Apr-19 16:07N 60°00' E 025°05'5 8.6
2014-Apr-19 15:33N 60°04' E 025°09'8 4.2
2014-Apr-19 13:33N 60°13' E 025°12'0 0.0
2014-Apr-19 12:27N 60°13' E 025°12'0 0.0
2014-Apr-19 11:29N 60°13' E 025°12'0 0.0
2014-Apr-19 10:22N 60°13' E 025°12'35 3.4
2014-Apr-19 00:09N 60°00' E 026°17'1219.8
2014-Apr-18 23:33N 60°01' E 026°41'7 0.2
2014-Apr-17 12:10N 59°59' E 026°55'1118.0
2014-Apr-17 11:33N 59°59' E 026°33'5618.5
2014-Apr-17 08:34N 59°46' E 024°45'2018.2
2014-Apr-17 07:28N 59°41' E 024°07'1718.4
2014-Apr-17 06:33N 59°35' E 023°35'35610.6
2014-Apr-15 21:04N 55°26' E 015°41'918.1
2014-Apr-15 20:34N 55°25' E 015°25'1212.2
2014-Apr-15 19:33N 55°24' E 015°04'7 7.2
2014-Apr-15 18:33N 55°24' E 014°51'1111.2
2014-Apr-15 17:34N 55°19' E 014°33'1716.6
2014-Apr-15 16:33N 55°06' E 014°15'1616.2
2014-Apr-15 15:34N 54°58' E 013°51'1616.2
2014-Apr-15 14:34N 54°53' E 013°24'16 8.2
2014-Apr-15 12:34N 54°48' E 012°57'1716.7
2014-Apr-15 11:34N 54°40' E 012°32'1616.5
2014-Apr-15 10:34N 54°27' E 012°14'1616.1
2014-Apr-15 09:34N 54°25' E 011°47'1514.9
2014-Apr-15 08:34N 54°31' E 011°23'9 8.8
2014-Apr-15 07:34N 54°35' E 011°10'60 7.5
2014-Apr-14 23:33N 54°12' E 009°34'5 5.5
2014-Apr-14 22:34N 54°10' E 009°25'6 5.8
2014-Apr-14 21:33N 54°05' E 009°19'6 5.6
2014-Apr-14 20:34N 53°60' E 009°18'7 6.6
2014-Apr-14 19:34N 53°55' E 009°11'2 1.8
2014-Apr-14 18:33N 53°53' E 009°08'1 1.4
2014-Apr-14 17:34N 53°53' E 009°06'0 0.0
2014-Apr-14 16:34N 53°53' E 009°06'0 0.1
2014-Apr-14 15:34N 53°53' E 009°06'1010.2
2014-Apr-14 14:34N 53°50' E 008°50'1312.8
2014-Apr-14 13:33N 53°58' E 008°32'3316.5
2014-Apr-14 11:33N 53°56' E 007°36'1818.4
2014-Apr-14 10:34N 53°52' E 007°06'3718.7
2014-Apr-14 08:33N 53°41' E 006°05'1919.1
2014-Apr-14 07:34N 53°35' E 005°35'1919.3
2014-Apr-14 06:33N 53°29' E 005°04'1817.7
2014-Apr-14 05:33N 53°18' E 004°40'8612.1
2014-Apr-13 22:28N 51°53' E 004°25'0 0.0
2014-Apr-13 21:28N 51°53' E 004°25'0 0.0
2014-Apr-13 20:28N 51°53' E 004°25'0 0.0
2014-Apr-13 19:25N 51°53' E 004°25'0 0.0
2014-Apr-13 18:10N 51°53' E 004°25'0 0.0
2014-Apr-13 17:31N 51°53' E 004°25'0 0.0
2014-Apr-13 16:28N 51°53' E 004°25'0 0.0
2014-Apr-13 15:28N 51°53' E 004°25'  

Dump ship's entire track history

sailing weather and tide predictions

Containerships 6 — DABH — position and weather